Regional Weather Roundup
Issued by NWS Charleston, WV

Home | Current Version | Previous Version | Text Only | Print | Product List | Glossary Off
Versions: 1 2 3 4 5 6 7 8 9 10 11 12 13 14 15 16 17 18 19 20 21 22 23 24 25 26 27 28 29 30 31 32 33 34 35 36 37 38 39 40 41 42 43 44 45 46 47 48 49

000
ASUS41 KRLX 011210
RWRRLX
West Virginia Regional Weather Roundup
National Weather Service Charleston WV
800 AM EDT WED OCT 01 2014

Note: "fair" indicates few or no clouds below 12,000 feet with no
significant weather and/or obstructions to visibility.

WVZ003-011300-
Northern Panhandle of West Virginia

CITY           SKY/WX    TMP DP  RH WIND       PRES   REMARKS
WHEELING       CLOUDY    57  54  89 E3        30.00R
$$

WVZ009-011300-
Northwest West Virginia

CITY           SKY/WX    TMP DP  RH WIND       PRES   REMARKS
PARKERSBURG    CLOUDY    58  56  93 CALM      30.02R FOG
$$

WVZ006-011300-
Western West Virginia

CITY           SKY/WX    TMP DP  RH WIND       PRES   REMARKS
HUNTINGTON     CLOUDY    60  56  86 N5        30.00R
$$

WVZ015-011300-
West Central West Virginia

CITY           SKY/WX    TMP DP  RH WIND       PRES   REMARKS
CHARLESTON     CLOUDY    62  58  86 CALM      29.99R FOG
$$

WVZ031-011300-
North Central West Virginia

CITY           SKY/WX    TMP DP  RH WIND       PRES   REMARKS
CLARKSBURG     FOG       56  56 100 CALM      30.00R VSB 1/4
MORGANTOWN     FOG       56  53  90 NE6       30.02R VSB<1/4
$$

WVZ035-042-045-011300-
South Central West Virginia

CITY           SKY/WX    TMP DP  RH WIND       PRES   REMARKS
BECKLEY        CLEAR     56  52  86 S5        30.03R
BLUEFIELD      CLEAR     59  51  75 W5        30.06R
LEWISBURG      CLOUDY    49  47  93 CALM      30.04R FOG
$$

WVZ047-011300-
Northern Mountains of West Virginia

CITY           SKY/WX    TMP DP  RH WIND       PRES   REMARKS
ELKINS         FOG       52  52 100 CALM      30.02R VSB 1/4
$$

WVZ052-011300-
Eastern Panhandle of West Virginia

CITY           SKY/WX    TMP DP  RH WIND       PRES   REMARKS
MARTINSBURG    CLOUDY    61  58  90 NE5       30.02R FOG
PETERSBURG     FOG      N/A N/A N/A CALM      30.02R VSB<1/4
$$



USA.gov is the U.S. government's official web portal to all federal, state and local government web resources and services.